CST,Max TemperatureF,Mean TemperatureF,Min TemperatureF,Max Dew PointF,MeanDew PointF,Min DewpointF,Max Humidity, Mean Humidity, Min Humidity, Max Sea Level PressureIn, Mean Sea Level PressureIn, Min Sea Level PressureIn, Max VisibilityMiles, Mean VisibilityMiles, Min VisibilityMiles, Max Wind SpeedMPH, Mean Wind SpeedMPH, Max Gust SpeedMPH,PrecipitationIn, CloudCover, Events, WindDirDegrees
2011-12-1,56,42,28,40,33,27,92,67,41,30.38,30.32,30.24,10,10,10,10,3,13,0.00,0,,130
2011-12-2,62,46,30,40,36,30,100,71,42,30.47,30.39,30.36,10,10,10,9,4,12,0.00,0,,108
2011-12-3,70,57,43,56,47,35,83,68,53,30.35,30.25,30.16,10,10,10,20,11,26,0.00,2,,138
2011-12-4,66,59,52,60,54,52,100,89,78,30.14,30.06,29.99,10,6,2,21,13,28,1.46,7,Rain,30
2011-12-5,52,46,39,52,43,37,100,95,89,30.18,30.04,29.97,10,5,1,24,15,29,1.31,8,Rain,11
2011-12-6,39,38,36,37,36,34,100,93,85,30.27,30.19,30.14,10,8,2,18,11,22,0.01,8,Rain,349
2011-12-7,39,34,28,36,31,29,100,88,76,30.38,30.25,30.14,10,7,2,21,9,26,0.02,6,Rain-Snow,303
2011-12-8,47,37,26,36,31,26,100,75,49,30.43,30.34,30.26,10,7,0,8,3,21,0.00,0,Fog,173
2011-12-9,50,38,25,35,30,25,100,76,52,30.47,30.32,30.25,10,5,0,9,2,9,0.00,0,Fog,336
2011-12-10,47,39,30,36,32,27,92,79,65,30.61,30.54,30.46,10,8,4,15,8,17,0.00,0,,20
2011-12-11,46,36,25,30,27,24,92,67,42,30.55,30.47,30.39,10,10,10,12,6,15,0.00,0,,27
2011-12-12,53,40,27,45,37,26,100,85,70,30.43,30.39,30.33,10,8,0,9,3,15,0.00,1,Fog,64
2011-12-13,53,47,40,52,49,40,100,95,89,30.47,30.39,30.30,10,3,0,9,5,13,0.00,7,Fog,122
2011-12-14,68,60,51,61,55,51,100,88,76,30.31,30.20,30.09,10,6,0,21,10,25,0.00,6,Fog,152
2011-12-15,69,60,51,65,60,48,100,92,84,30.22,30.11,30.06,10,8,1,22,11,24,0.23,8,Rain,260
2011-12-16,51,43,34,49,42,32,100,91,82,30.43,30.30,30.19,10,7,2,26,0,0,0.41,7,Rain,9
2011-12-17,52,42,31,37,34,30,100,76,52,30.52,30.45,30.41,10,8,4,12,4,14,0.00,0,,354
2011-12-18,56,43,29,43,35,28,100,74,47,30.46,30.38,30.25,10,7,0,8,3,12,0.00,0,Fog,172
2011-12-19,59,50,40,48,41,35,92,76,59,30.24,30.14,30.00,10,10,10,15,8,17,0.00,0,,139
2011-12-20,64,59,53,63,58,46,100,89,77,29.97,29.89,29.83,10,8,3,23,11,29,0.24,6,Rain,182
2011-12-21,53,48,42,46,43,39,100,87,74,30.05,29.99,29.91,10,10,9,18,4,23,0.00,2,,255
2011-12-22,50,48,45,47,46,43,100,97,93,30.24,30.04,29.91,10,6,2,17,7,23,1.92,7,Rain-Thunderstorm,15
2011-12-23,46,44,41,43,39,36,92,84,76,30.46,30.37,30.22,10,10,10,15,10,20,0.00,8,,19
2011-12-24,45,42,39,41,37,35,96,83,70,30.50,30.44,30.40,10,10,7,14,8,17,0.10,7,Rain,31
2011-12-25,50,46,42,45,43,41,100,90,80,30.45,30.37,30.32,10,8,4,14,7,16,0.64,6,Rain,39
2011-12-26,48,46,44,46,43,37,100,88,76,30.33,30.08,29.90,10,6,1,25,8,31,1.42,7,Rain,101
2011-12-27,56,46,36,43,41,32,92,74,55,30.19,30.02,29.90,10,10,8,22,0,0,T,5,Rain,270
2011-12-28,53,43,32,36,33,29,92,69,45,30.23,30.17,30.10,10,10,10,10,3,13,0.00,0,,192
2011-12-29,60,46,31,50,42,32,100,82,64,30.10,30.02,29.93,10,10,10,15,8,20,0.00,1,,189
2011-12-30,62,52,41,50,46,38,100,80,60,30.06,29.97,29.91,10,9,6,16,8,21,0.00,2,,219
2011-12-31,68,52,36,63,47,35,92,67,42,30.14,30.05,29.97,10,10,9,21,8,28,0.00,3,,177